This demonstration page uses our WeatherBlox Daily Observations layout. Learn more.

39.51506, -84.39828

Hourly Observations for August 23, 2019

Temp ( °F °C ) Dew Point ( °F °C ) Humidity (%) Winds ( mph kmh ) Pressure ( in mb ) Visibility ( mi km ) Precip ( " mm )
12:15 am 00:15 Cloudy 71 21.9 68 20.2 90 90 NNE 5 7 30 1016 10 16.09344 N/A
12:35 am 00:35 Cloudy 72 22.1 68 20.1 88 88 NNE 7 11 30 1016 10 16.09344 N/A
12:55 am 00:55 Cloudy 71 21.9 68 20 89 89 NNE 6 9 30 1016 10 16.09344 N/A
1:15 am 01:15 Cloudy 71 21.8 68 20 90 90 NNE 5 7 30 1016 10 16.09344 N/A
1:35 am 01:35 Cloudy 71 21.8 67 19.5 87 87 NNE 7 11 30 1016 10 16.09344 N/A
1:55 am 01:55 Cloudy 71 21.5 67 19.6 89 89 N 6 9 30 1016 10 16.09344 N/A
2:15 am 02:15 Cloudy 71 21.4 67 19.2 87 87 N 5 7 30 1016 10 16.09344 N/A
2:35 am 02:35 Cloudy 70 21.1 66 19.1 88 88 N 6 9 30 1016 10 16.09344 N/A
2:55 am 02:55 Cloudy 69 20.6 66 18.8 89 89 N 7 11 30 1016 10 16.09344 N/A
3:15 am 03:15 Cloudy 69 20.5 66 18.7 89 89 N 7 11 30 1016 10 16.09344 N/A
3:35 am 03:35 Cloudy with Light Rain 69 20.5 65 18.5 88 88 N 8 13 30 1016 10 16.09344 N/A
3:55 am 03:55 Cloudy with Light Rain 69 20.3 65 18.2 88 88 NE 8 13 30 1016 10 16.09344 N/A
4:15 am 04:15 Cloudy with Light Rain 68 19.8 64 17.9 89 89 NE 12 19 30 1016 7 11.265408 N/A
4:35 am 04:35 Cloudy 67 19.6 64 18 91 91 NE 6 9 30 1016 10 16.09344 N/A
4:55 am 04:55 Cloudy 67 19.6 64 17.6 88 88 ENE 3 6 30 1016 10 16.09344 N/A
5:15 am 05:15 Cloudy 68 19.8 64 17.6 87 87 NE 6 9 30.03 1017 10 16.09344 N/A
5:35 am 05:35 Cloudy 68 19.8 63 17.4 86 86 NNE 6 9 30.03 1017 10 16.09344 N/A
5:55 am 05:55 Cloudy 68 19.9 63 17.2 85 85 NE 6 9 30.03 1017 10 16.09344 N/A
6:15 am 06:15 Cloudy 67 19.7 63 17 85 85 ENE 9 15 30.03 1017 10 16.09344 N/A
6:35 am 06:35 Cloudy 67 19.6 62 16.9 85 85 NE 9 15 30.03 1017 10 16.09344 N/A
6:55 am 06:55 Mostly Cloudy 67 19.5 62 16.8 84 84 NE 8 13 30.03 1017 10 16.09344 N/A
7:15 am 07:15 Cloudy 67 19.5 62 16.8 84 84 ENE 7 11 30.06 1018 10 16.09344 N/A
7:35 am 07:35 Cloudy 67 19.5 62 16.9 85 85 ENE 8 13 30.06 1018 10 16.09344 N/A
7:55 am 07:55 Mostly Cloudy 67 19.6 63 17.3 87 87 ENE 5 7 30.06 1018 10 16.09344 N/A
8:15 am 08:15 Partly Cloudy 67 19.3 63 17.1 87 87 E 6 9 30.06 1018 10 16.09344 N/A
8:35 am 08:35 Sunny 68 19.8 62 16.8 83 83 ENE 7 11 30.09 1019 10 16.09344 N/A
8:55 am 08:55 Sunny 67 19.7 63 17 85 85 ENE 5 7 30.09 1019 10 16.09344 N/A
9:15 am 09:15 Partly Cloudy 69 20.4 64 17.6 84 84 NNE 3 6 30.09 1019 10 16.09344 N/A
9:35 am 09:35 Mostly Cloudy 69 20.4 62 16.9 80 80 NNE 8 13 30.09 1019 10 16.09344 N/A
9:55 am 09:55 Partly Cloudy 69 20.6 62 16.7 78 78 NE 8 13 30.09 1019 10 16.09344 N/A
10:15 am 10:15 Partly Cloudy 70 20.9 62 16.7 77 77 ENE 8 13 30.09 1019 10 16.09344 N/A
10:35 am 10:35 Partly Cloudy 70 21.1 62 16.4 75 75 NE 9 15 30.12 1020 10 16.09344 N/A
10:55 am 10:55 Sunny 71 21.9 61 16.3 71 71 NE 8 13 30.12 1020 10 16.09344 N/A
11:15 am 11:15 Sunny 71 21.4 60 15.4 69 69 ENE 9 15 30.12 1020 10 16.09344 N/A
11:35 am 11:35 Sunny 71 21.7 58 14.6 64 64 NE 12 19 30.12 1020 10 16.09344 N/A
11:55 am 11:55 Sunny 72 22.1 57 13.7 59 59 NE 12 19 30.12 1020 10 16.09344 N/A
12:15 pm 12:15 Sunny 72 22.4 58 14.4 61 61 ENE 7 11 30.12 1020 10 16.09344 N/A
12:35 pm 12:35 Sunny 72 22.3 57 14.1 60 60 NE 10 17 30.12 1020 10 16.09344 N/A
12:55 pm 12:55 Sunny 73 22.6 57 14 58 58 E 8 13 30.12 1020 10 16.09344 N/A
1:15 pm 13:15 Sunny 73 22.9 58 14.3 58 58 ENE 8 13 30.12 1020 10 16.09344 N/A
1:35 pm 13:35 Sunny 75 23.9 60 15.3 59 59 NE 9 15 30.12 1020 10 16.09344 N/A
1:55 pm 13:55 Sunny 74 23.6 56 13.5 53 53 NE 10 17 30.12 1020 10 16.09344 N/A
2:15 pm 14:15 Partly Cloudy 77 24.8 57 14 51 51 NE 9 15 30.12 1020 10 16.09344 N/A
2:35 pm 14:35 Partly Cloudy 76 24.4 56 13.2 50 50 NE 13 20 30.12 1020 10 16.09344 N/A
2:55 pm 14:55 Partly Cloudy 75 24 56 13.6 52 52 ENE 7 11 30.12 1020 10 16.09344 N/A
3:15 pm 15:15 Partly Cloudy 75 24 56 13.4 52 52 N 12 19 30.12 1020 10 16.09344 N/A
3:35 pm 15:35 Mostly Cloudy 74 23.4 55 13 52 52 NNE 9 15 30.12 1020 10 16.09344 N/A
3:55 pm 15:55 Mostly Cloudy 74 23.6 57 13.9 55 55 NE 9 15 30.09 1019 10 16.09344 N/A
4:15 pm 16:15 Sunny 75 23.7 55 12.8 51 51 NNE 9 15 30.09 1019 10 16.09344 N/A
4:35 pm 16:35 Sunny 74 23.5 55 12.7 51 51 NNE 10 17 30.09 1019 10 16.09344 N/A
4:55 pm 16:55 Sunny 74 23.4 56 13.5 54 54 NNE 7 11 30.09 1019 10 16.09344 N/A
5:15 pm 17:15 Cloudy 74 23.1 56 13.6 55 55 NE 8 13 30.09 1019 10 16.09344 N/A
5:35 pm 17:35 Partly Cloudy 73 23 56 13.3 54 54 NNE 9 15 30.09 1019 10 16.09344 N/A
5:55 pm 17:55 Sunny 74 23.3 55 13 52 52 NE 8 13 30.09 1019 10 16.09344 N/A
6:15 pm 18:15 Sunny 75 23.9 56 13.3 52 52 NNE 8 13 30.09 1019 10 16.09344 N/A
6:35 pm 18:35 Mostly Cloudy 75 23.8 55 12.7 50 50 NE 9 15 30.09 1019 10 16.09344 N/A
6:55 pm 18:55 Partly Cloudy 73 22.7 54 12.1 51 51 N 5 7 30.09 1019 10 16.09344 N/A
7:15 pm 19:15 Mostly Cloudy 72 22.1 57 13.8 59 59 NNE 5 7 30.09 1019 10 16.09344 N/A
7:35 pm 19:35 Cloudy 72 22.2 56 13.1 56 56 NE 7 11 30.09 1019 10 16.09344 N/A
7:55 pm 19:55 Cloudy 71 21.9 55 12.9 57 57 NNE 10 17 30.12 1020 10 16.09344 N/A
8:15 pm 20:15 Cloudy 71 21.4 55 12.6 57 57 NNE 7 11 30.12 1020 10 16.09344 N/A
8:35 pm 20:35 Mostly Cloudy 69 20.8 55 12.6 60 60 N 6 9 30.12 1020 10 16.09344 N/A
8:55 pm 20:55 Partly Cloudy 67 19.7 54 12.4 63 63 NNE 6 9 30.12 1020 10 16.09344 N/A
9:15 pm 21:15 Mostly Cloudy 66 19 55 12.5 66 66 NNE 5 7 30.12 1020 10 16.09344 N/A
9:30 pm 21:30 Partly Cloudy 65 18.5 54 12.3 67 67 N 5 7 30.12 1020 10 16.09344 N/A
9:55 pm 21:55 Clear 64 17.8 55 12.5 71 71 N 3 6 30.15 1021 10 16.09344 N/A
10:15 pm 22:15 Clear 63 17.3 55 12.6 74 74 Calm 30.15 1021 10 16.09344 N/A
10:35 pm 22:35 Clear 61 16.3 55 12.6 79 79 N 3 6 30.18 1022 10 16.09344 N/A
10:55 pm 22:55 Clear 61 16.2 55 12.6 79 79 N 5 7 30.18 1022 10 16.09344 N/A
11:15 pm 23:15 Clear 60 15.8 55 12.5 81 81 N 3 6 30.18 1022 10 16.09344 N/A
11:35 pm 23:35 Clear 59 15.2 54 12.4 84 84 Calm 30.21 1023 10 16.09344 N/A
11:55 pm 23:55 Clear 59 14.9 54 12.4 85 85 NNW 3 6 30.21 1023 10 16.09344 N/A

Powered by AerisWeather